BEIDOU-2 G5 (C05)

Last updated on Wed Aug 26 2026 00:04:16 GMT+0000 (Coordinated Universal Time)

1 38091U 12008A 26237.62811054 .00000054 00000+0 00000+0 0 9996 2 38091 3.7413 69.2068 0006048 254.6267 294.8603 1.00273740 53062
UTC large
Height (km)
Speed (km/s)
/
Latitude / Longitude
Inclination (degrees)
Orbital Period (minutes)
Azimuth
Elevation
Range (km)
Doppler Factor

Next 0 passes for location: London (51.5072 / 0.1276)

No passes found over London.
BEIDOU-2 G5 (C05)